Theta_e
318 317 314 309 306 302 300 297 295 295 294 294 293 292 292 292 291 291 291 289 290 289
318 318 313 309 306 302 297 295 293 292 290 291 290 290 290 289 288 289 289 289 289 289
318 314 310 306 302 298 294 293 291 290 289 289 289 289 289 288 289 289 289 290 288 287
314 308 305 302 298 295 292 291 289 289 289 289 288 289 289 289 289 289 288 287 286 286
303 300 297 296 294 292 291 290 290 290 290 290 289 290 290 289 289 287 286 285 284 284
295 294 293 292 291 291 291 290 291 292 291 290 290 289 289 288 287 285 285 285 284 283
291 291 291 291 291 291 292 291 291 291 291 290 290 289 288 287 285 285 285 285 284 283
291 292 292 291 291 291 290 290 290 289 288 288 287 287 285 284 283 283 283 283 283 283
290 289 288 288 287 287 286 286 286 285 285 285 286 287 287 286 283 283 282 282 282 283
287 286 286 286 285 284 284 284 284 284 283 283 283 287 287 288 285 284 284 283 283 282
285 284 284 284 284 283 283 283 282 282 282 282 283 286 286 286 284 283 283 283 283 283
284 284 284 284 283 283 283 283 283 283 282 282 282 285 286 284 282 282 282 282 282 282
282 282 281 281 281 282 282 282 282 282 282 281 280 285 285 284 282 280 281 281 282 283
279 279 280 280 280 280 280 280 280 280 280 280 280 281 282 282 280 279 279 280 280 281
Wind_Speed
16 9 11 12 9 8 8 7 8 7 7 7 7 6 6 5 4 5 5 5 2 1
15 14 12 12 9 7 6 7 8 8 8 8 8 7 7 5 5 6 3 5 3 2
13 11 10 11 11 11 9 11 11 10 8 7 6 6 7 6 6 5 3 3 3 4
8 9 9 10 9 11 11 11 12 13 12 9 6 5 7 4 7 4 3 5 3 2
8 8 8 8 8 11 12 10 11 10 8 8 10 5 4 5 5 5 6 4 4 5
9 10 10 10 9 9 10 12 11 9 6 8 4 7 5 4 5 4 4 4 4 5
12 13 12 12 12 11 10 8 8 6 4 5 6 3 4 3 2 2 3 4 5 6
11 11 10 10 11 11 9 7 6 7 5 6 5 2 1 1 2 3 5 5 5 6
13 13 13 11 10 10 10 9 7 6 5 5 4 6 5 4 4 4 5 5 5 6
13 14 11 10 9 8 9 9 8 7 6 6 6 10 10 8 4 5 5 6 7 7
13 13 9 12 11 9 7 7 6 8 8 7 6 13 13 12 5 6 6 6 7 8
11 10 10 11 10 7 7 8 8 6 7 6 5 16 16 12 6 7 8 8 7 8
11 12 13 11 10 8 7 8 6 9 9 11 10 19 21 17 7 9 8 10 11 15
13 14 12 10 10 10 10 10 10 10 9 11 11 16 27 26 12 11 11 10 10 9
Wind_Direction
181 191 179 182 175 178 179 174 153 158 141 134 127 116 117 115 113 112 128 117 95 111
186 188 178 176 167 164 141 137 136 129 122 122 123 128 125 122 117 114 111 108 119 108
188 169 160 158 163 154 139 137 136 126 125 116 118 117 119 130 112 127 120 97 183 206
167 147 144 148 148 142 133 138 138 139 133 125 118 126 114 104 113 137 125 201 199 202
112 116 115 120 129 135 133 133 135 129 119 138 135 133 145 143 105 184 190 182 202 232
80 91 88 91 94 106 115 119 110 102 116 133 148 139 126 157 180 193 207 207 221 238
72 77 81 86 85 83 76 79 100 100 118 109 107 112 130 179 165 211 241 232 231 235
74 78 78 95 93 88 84 65 52 75 73 79 84 74 149 170 251 258 266 251 243 242
71 68 68 46 58 70 66 66 58 61 60 55 44 27 1 314 295 271 261 273 256 245
56 57 61 69 59 52 59 58 48 40 35 31 21 3 348 324 308 293 293 288 282 287
44 55 36 59 58 43 40 45 33 38 31 26 11 358 347 333 313 304 292 285 287 284
48 58 52 51 54 41 47 46 41 33 32 28 13 21 16 9 348 335 325 311 305 300
46 56 55 46 40 37 47 50 43 50 46 44 36 32 29 25 9 358 345 340 335 329
42 44 40 48 45 44 47 47 42 45 45 38 28 29 22 15 9 356 350 342 337 328